Regional Weather Roundup
Issued by NWS

Home | Current Version | Previous Version | Text Only | Print | Product List | Glossary On
Versions: 1 2 3 4 5 6 7 8 9 10 11 12 13 14 15 16 17 18 19 20 21 22 23 24 25 26 27 28 29 30 31 32 33 34 35 36 37 38 39 40 41 42 43 44 45 46 47 48 49 50
000
ASUS43 KOAX 190502
RWRNE

WEATHER ROUNDUP FOR NEBRASKA
NATIONAL WEATHER SERVICE OMAHA NE
1100 PM CST THU DEC 18 2014

NOTES: SATELLITE DATA IS BEING USED TO AUGMENT CLOUD COVER ABOVE
       12000 FEET.
       "FAIR" INDICATES FEW OR NO CLOUDS BELOW 12,000 FEET WITH NO
       SIGNIFICANT WEATHER AND/OR OBSTRUCTIONS TO VISIBILITY.

  * THESE STATIONS DO NOT REPORT WEATHER SUCH AS RAIN...SNOW OR FOG.

NEZ001>004-019>022-054>056-190600-
NEBRASKA PANHANDLE

CITY           SKY/WX    TMP DP  RH WIND       PRES   REMARKS
SCOTTSBLUFF    MOCLDY    14  10  84 CALM      30.08S FOG
ALLIANCE       MOCLDY     8   5  87 SW3       30.06S
CHADRON        PTCLDY    17  12  80 SW10      30.07S WCI   5
KIMBALL        MOCLDY    26  20  78 W7        30.06S WCI  19
SIDNEY         MOCLDY    25  17  72 W10       30.09S WCI  15
$$

NEZ057>060-069>072-079>082-190600-
SOUTHWEST NEBRASKA

CITY           SKY/WX    TMP DP  RH WIND       PRES   REMARKS
NORTH PLATTE   FOG       19  17  92 NW3       30.13R VSB 1/4
IMPERIAL       PTCLDY    18  14  84 CALM      30.11S FOG
LEXINGTON      CLOUDY    30  28  92 SW7       30.15S WCI  23
MCCOOK         FOG       27  27 100 SW3       30.14F VSB 1/2
$$

NEZ005>010-023>029-035>040-094-190600-
NORTH CENTRAL NEBRASKA

CITY           SKY/WX    TMP DP  RH WIND       PRES   REMARKS
VALENTINE      PTCLDY    11   8  88 SW7       30.08S WCI   0
AINSWORTH      PTCLDY    18  16  93 SW3       30.08S
BROKEN BOW     CLOUDY    28  26  92 SW5       30.12F FOG     WCI  23
$$

NEZ041-046>049-061>064-073>077-083>087-190600-
SOUTH CENTRAL NEBRASKA

CITY           SKY/WX    TMP DP  RH WIND       PRES   REMARKS
GRAND ISLAND   CLOUDY    29  24  82 SW7       30.20R WCI  22
AURORA         CLOUDY    30  28  94 S3        30.19S
HASTINGS       CLOUDY    30  25  81 SW6       30.18R WCI  24
KEARNEY *      CLOUDY    28  25  86 S9        30.18R WCI  20
$$

NEZ011>018-030>034-042>045-190600-
NORTHEAST NEBRASKA

CITY           SKY/WX    TMP DP  RH WIND       PRES   REMARKS
NORFOLK        CLOUDY    30  26  85 S6        30.18S WCI  24
BLAIR          CLOUDY    31  28  87 S5        30.23R WCI  26
COLUMBUS *     CLOUDY    28  23  80 S7        30.22S WCI  21
FREMONT        CLOUDY    32  29  90 S7        30.23S WCI  25
TEKAMAH        CLOUDY    31  27  85 S6        30.24R WCI  25
$$

NEZ050>053-065>068-078-088>093-190600-
SOUTHEAST NEBRASKA

CITY           SKY/WX    TMP DP  RH WIND       PRES   REMARKS
LINCOLN        CLOUDY    31  28  89 S7        30.25R WCI  24
OMAHA EPPLEY   CLOUDY    31  27  85 S9        30.26R WCI  23
FALLS CITY     CLOUDY    30  27  88 CALM      30.26R
NEBRASKA CITY  CLOUDY    30  30 100 S6        30.25S FOG     WCI  24
PLATTSMOUTH    CLOUDY    30  27  90 S5        30.24S WCI  25
$$

NEZ044-045-051>053-067-190600-
OMAHA AREA

CITY           SKY/WX    TMP DP  RH WIND       PRES   REMARKS
OMAHA EPPLEY   CLOUDY    31  27  85 S9        30.26R WCI  23
BLAIR          CLOUDY    31  28  87 S5        30.23R WCI  26
FREMONT        CLOUDY    32  29  90 S7        30.23S WCI  25
OFFUTT AFB     CLOUDY    30  28  90 SE6       30.25R WCI  24
PLATTSMOUTH    CLOUDY    30  27  90 S5        30.24S WCI  25
WAHOO          CLOUDY    31  28  88 S6        30.23S WCI  25
$$



USA.gov is the U.S. government's official web portal to all federal, state and local government web resources and services.